Terug naar catalogus

BREEZE-M DEB

ActiefHEO
NORAD 38607·DEBRIS·🇷🇺 Russia

Gelanceerd Mar 14, 2008 vanaf Baikonur Cosmodrome

Loading…

Volgende Passages (komende 24 uur)

TLE

VersSource: Space-Track

Epoch: Sep 12, 2026, 12:49 UTC

1 38607U 08011BE  26255.53445546 -.00001228  00000-0 -14437-1 0  9995
2 38607  49.9344  29.2116 6484084 147.7287 296.4148  3.05966396174542

Volg BREEZE-M DEB in realtime met AllMySat

Download on the App Store